When you browse on this site, cookies collect data to enhance your experience and personalize the content and advertising you see.
Visit our Privacy Policy to learn more. By continuing to use the site, you agree to this use of cookies and data.
  • In Hungary
  • List of Countries
  • For 7 days
  • Water Temperature
  • Satellite Maps
  • Weather Map
  • News
  • Weather Widgets
  • user-avatar
    Login

    Hourly Weather Texcalac

    Today, 21 February, Thursday

    Time Temperature Precipitation Wind Pressure Humidity
    00:00 +13°C° 0 mm 2 mps 565 mmHg 50%
    01:00 +12°C° 0 mm 2 mps 565 mmHg 55%
    02:00 +10°C° 0 mm 2 mps 564 mmHg 59%
    03:00 +10°C° 0 mm 2 mps 564 mmHg 61%
    04:00 +9°C° 0 mm 2 mps 564 mmHg 62%
    05:00 +9°C° 0 mm 2 mps 564 mmHg 64%
    06:00 +10°C° 0 mm 2 mps 565 mmHg 58%
    07:00 +13°C° 0 mm 2 mps 566 mmHg 51%
    08:00 +14°C° 0 mm 2 mps 567 mmHg 45%
    09:00 +17°C° 0 mm 3 mps 568 mmHg 38%
    10:00 +19°C° 0 mm 3 mps 569 mmHg 32%
    11:00 +21°C° 0 mm 3 mps 570 mmHg 25%
    12:00 +22°C° 0 mm 4 mps 570 mmHg 23%
    13:00 +23°C° 0 mm 4 mps 569 mmHg 20%
    14:00 +23°C° 0 mm 5 mps 569 mmHg 18%
    15:00 +22°C° 0 mm 4 mps 568 mmHg 19%
    16:00 +21°C° 0 mm 4 mps 568 mmHg 20%
    17:00 +20°C° 0 mm 4 mps 567 mmHg 22%
    18:00 +18°C° 0 mm 3 mps 567 mmHg 26%
    19:00 +16°C° 0 mm 3 mps 567 mmHg 31%
    20:00 +14°C° 0 mm 2 mps 566 mmHg 35%
    21:00 +14°C° 0 mm 1 mps 566 mmHg 38%
    22:00 +13°C° 0 mm 1 mps 566 mmHg 42%
    23:00 +13°C° 0 mm 1 mps 566 mmHg 45%

    Tomorrow, 22 February, Friday

    Time Temperature Precipitation Wind Pressure Humidity
    00:00 +12°C° 0 mm 1 mps 565 mmHg 47%
    01:00 +12°C° 0 mm 1 mps 565 mmHg 49%
    02:00 +12°C° 0 mm 1 mps 565 mmHg 51%
    03:00 +11°C° 0 mm 1 mps 565 mmHg 52%
    04:00 +11°C° 0 mm 1 mps 565 mmHg 52%
    05:00 +11°C° 0 mm 1 mps 564 mmHg 52%
    06:00 +13°C° 0 mm 1 mps 566 mmHg 46%
    07:00 +15°C° 0 mm 1 mps 567 mmHg 39%
    08:00 +18°C° 0 mm 1 mps 569 mmHg 33%
    09:00 +20°C° 0 mm 1 mps 570 mmHg 28%
    10:00 +22°C° 0 mm 1 mps 571 mmHg 22%
    11:00 +24°C° 0 mm 1 mps 572 mmHg 17%
    12:00 +24°C° 0 mm 2 mps 571 mmHg 16%
    13:00 +25°C° 0 mm 3 mps 571 mmHg 16%
    14:00 +25°C° 0 mm 3 mps 570 mmHg 15%
    15:00 +24°C° 0 mm 3 mps 570 mmHg 19%
    16:00 +22°C° 0 mm 3 mps 569 mmHg 23%
    17:00 +21°C° 0 mm 3 mps 569 mmHg 26%
    18:00 +19°C° 0 mm 3 mps 568 mmHg 30%
    19:00 +18°C° 0 mm 2 mps 568 mmHg 34%
    20:00 +16°C° 0 mm 1 mps 568 mmHg 38%
    21:00 +15°C° 0 mm 1 mps 568 mmHg 39%
    22:00 +15°C° 0 mm 1 mps 568 mmHg 40%
    23:00 +14°C° 0 mm 1 mps 568 mmHg 41%

    Day after tomorrow, 23 February, Saturday

    Time Temperature Precipitation Wind Pressure Humidity
    00:00 +14°C° 0 mm 1 mps 567 mmHg 43%
    01:00 +13°C° 0 mm 1 mps 567 mmHg 46%
    02:00 +13°C° 0 mm 1 mps 566 mmHg 49%
    03:00 +12°C° 0 mm 1 mps 566 mmHg 51%
    04:00 +12°C° 0 mm 1 mps 566 mmHg 53%
    05:00 +11°C° 0 mm 1 mps 566 mmHg 56%
    06:00 +13°C° 0 mm 1 mps 567 mmHg 53%
    07:00 +14°C° 0 mm 1 mps 568 mmHg 50%
    08:00 +16°C° 0 mm 1 mps 569 mmHg 47%
    09:00 +19°C° 0 mm 1 mps 570 mmHg 41%
    10:00 +21°C° 0 mm 1 mps 571 mmHg 36%
    11:00 +23°C° 0 mm 1 mps 572 mmHg 30%
    12:00 +23°C° 0 mm 2 mps 571 mmHg 29%
    13:00 +24°C° 0 mm 2 mps 571 mmHg 28%
    14:00 +24°C° 0 mm 3 mps 570 mmHg 26%
    15:00 +21°C° 0.1 mm 3 mps 569 mmHg 33%
    16:00 +20°C° 0.1 mm 3 mps 569 mmHg 39%
    17:00 +18°C° 0.1 mm 3 mps 568 mmHg 45%
    18:00 +17°C° 0.1 mm 3 mps 569 mmHg 46%
    19:00 +17°C° 0.1 mm 3 mps 569 mmHg 47%
    20:00 +16°C° 0.1 mm 3 mps 570 mmHg 49%
    21:00 +15°C° 0 mm 2 mps 569 mmHg 53%
    22:00 +14°C° 0 mm 2 mps 569 mmHg 58%
    23:00 +13°C° 0 mm 2 mps 569 mmHg 62%

    24 February, Sunday

    Time Temperature Precipitation Wind Pressure Humidity
    00:00 +13°C° 0 mm 2 mps 568 mmHg 68%
    01:00 +12°C° 0 mm 2 mps 568 mmHg 73%
    02:00 +12°C° 0 mm 2 mps 567 mmHg 78%
    03:00 +10°C° 0 mm 2 mps 567 mmHg 81%
    04:00 +10°C° 0 mm 2 mps 567 mmHg 83%
    05:00 +10°C° 0 mm 2 mps 567 mmHg 86%
    06:00 +12°C° 0 mm 2 mps 568 mmHg 81%
    07:00 +12°C° 0 mm 3 mps 569 mmHg 76%
    08:00 +13°C° 0 mm 3 mps 570 mmHg 72%
    09:00 +14°C° 0 mm 3 mps 571 mmHg 64%
    10:00 +17°C° 0 mm 2 mps 571 mmHg 57%
    11:00 +18°C° 0 mm 2 mps 572 mmHg 49%
    12:00 +19°C° 0 mm 2 mps 571 mmHg 48%
    13:00 +19°C° 0 mm 2 mps 571 mmHg 47%
    14:00 +20°C° 0 mm 2 mps 570 mmHg 45%
    15:00 +19°C° 0.1 mm 2 mps 570 mmHg 49%
    16:00 +18°C° 0.1 mm 2 mps 570 mmHg 53%
    17:00 +17°C° 0.1 mm 2 mps 569 mmHg 57%
    18:00 +17°C° 0.1 mm 2 mps 570 mmHg 62%
    19:00 +16°C° 0.1 mm 2 mps 570 mmHg 66%
    20:00 +15°C° 0.1 mm 1 mps 570 mmHg 71%
    21:00 +15°C° 0.1 mm 1 mps 570 mmHg 75%
    22:00 +14°C° 0.1 mm 1 mps 569 mmHg 79%
    23:00 +13°C° 0.1 mm 1 mps 569 mmHg 83%

    25 February, Monday

    Time Temperature Precipitation Wind Pressure Humidity
    00:00 +13°C° 0 mm 1 mps 568 mmHg 85%
    01:00 +12°C° 0 mm 1 mps 568 mmHg 88%
    02:00 +12°C° 0 mm 1 mps 567 mmHg 90%
    03:00 +12°C° 0 mm 1 mps 568 mmHg 90%
    04:00 +11°C° 0 mm 1 mps 568 mmHg 90%
    05:00 +11°C° 0 mm 1 mps 568 mmHg 91%
    06:00 +12°C° 0 mm 0 mps 568 mmHg 83%
    07:00 +13°C° 0 mm 0 mps 569 mmHg 75%
    08:00 +14°C° 0 mm 0 mps 570 mmHg 68%
    09:00 +18°C° 0.1 mm 1 mps 571 mmHg 60%
    10:00 +20°C° 0.1 mm 1 mps 572 mmHg 52%
    11:00 +22°C° 0.1 mm 1 mps 572 mmHg 43%
    12:00 +22°C° 0.3 mm 1 mps 572 mmHg 43%
    13:00 +21°C° 0.3 mm 2 mps 571 mmHg 42%
    14:00 +21°C° 0.3 mm 2 mps 570 mmHg 41%
    15:00 +20°C° 0.9 mm 2 mps 570 mmHg 45%
    16:00 +19°C° 0.9 mm 2 mps 569 mmHg 49%
    17:00 +18°C° 0.9 mm 2 mps 569 mmHg 53%
    18:00 +18°C° 0.9 mm 1 mps 569 mmHg 57%
    19:00 +16°C° 0.9 mm 1 mps 569 mmHg 61%
    20:00 +16°C° 0.9 mm 1 mps 569 mmHg 65%
    21:00 +15°C° 0.7 mm 1 mps 569 mmHg 67%
    22:00 +15°C° 0.7 mm 1 mps 569 mmHg 68%
    23:00 +14°C° 0.7 mm 1 mps 569 mmHg 70%

    26 February, Tuesday

    Time Temperature Precipitation Wind Pressure Humidity
    00:00 +14°C° 0.2 mm 1 mps 568 mmHg 71%
    01:00 +14°C° 0.2 mm 1 mps 568 mmHg 71%
    02:00 +13°C° 0.2 mm 1 mps 568 mmHg 72%
    03:00 +13°C° 0 mm 1 mps 568 mmHg 73%
    04:00 +11°C° 0 mm 0 mps 568 mmHg 74%
    05:00 +11°C° 0 mm 0 mps 567 mmHg 75%
    06:00 +12°C° 0 mm 0 mps 568 mmHg 70%
    07:00 +14°C° 0 mm 0 mps 569 mmHg 64%
    08:00 +16°C° 0 mm 1 mps 570 mmHg 59%
    09:00 +19°C° 0.1 mm 1 mps 571 mmHg 52%
    10:00 +20°C° 0.1 mm 1 mps 571 mmHg 46%
    11:00 +22°C° 0.1 mm 1 mps 572 mmHg 39%
    12:00 +21°C° 0.2 mm 2 mps 571 mmHg 38%
    13:00 +23°C° 0.2 mm 2 mps 571 mmHg 36%
    14:00 +23°C° 0.2 mm 2 mps 570 mmHg 35%
    15:00 +21°C° 0.8 mm 2 mps 570 mmHg 41%
    16:00 +19°C° 0.8 mm 2 mps 569 mmHg 46%
    17:00 +18°C° 0.8 mm 2 mps 569 mmHg 52%
    18:00 +18°C° 0.8 mm 1 mps 569 mmHg 57%
    19:00 +16°C° 0.8 mm 1 mps 569 mmHg 62%
    20:00 +15°C° 0.8 mm 1 mps 569 mmHg 67%
    21:00 +14°C° 2.5 mm 2 mps 569 mmHg 71%
    22:00 +13°C° 2.5 mm 2 mps 569 mmHg 75%
    23:00 +13°C° 2.5 mm 2 mps 568 mmHg 79%
    Show more